Zurück zum Katalog

COSMOS 2112

AktivMilitärLEO
NORAD 21014·PAYLOAD·🇷🇺 Russia

Gestartet Dec 10, 1990 von Plesetsk Cosmodrome

Loading…

Nächste Überflüge (nächste 24 Stunden)

TLE

AktuellSource: Space-Track

Epoche: Sep 14, 2026, 22:25 UTC

1 21014U 90111A   26257.93424234  .00000086  00000-0  39819-4 0  9991
2 21014  74.0470 140.6305 0028294 306.8293  53.0264 14.34335470870141

Verfolge COSMOS 2112 in Echtzeit mit AllMySat

Download on the App Store